<?xml version="1.0" encoding="UTF-8" standalone="no" ?>
<gpx xmlns="http://www.topografix.com/GPX/1/1" xmlns:xsi="http://www.w3.org/2001/XMLSchema-instance" xsi:schemaLocation="http://www.topografix.com/GPX/1/1 http://www.topografix.com/GPX/1/1/gpx.xsd" version="1.1" creator="VisuGPX - https://www.visugpx.com">
  <metadata>
    <name>2026_ADVENTURE 2.1 Alpe Naccio_V2</name>
  </metadata>
  <wpt lat="46.14947" lon="8.71494">
    <ele>1108.9</ele>
    <name><![CDATA[Point de départ]]></name>
  </wpt>
  <wpt lat="46.14412" lon="8.69451">
    <ele>1406.2</ele>
    <name><![CDATA[Destination]]></name>
  </wpt>
  <trk>
    <name><![CDATA[Swisstopo Route]]></name>
    <trkseg>
      <trkpt lat="46.14947" lon="8.71494">
        <ele>1108.9</ele>
        <time>1970-01-01T01:00:00+01:00</time>
      </trkpt>
      <trkpt lat="46.14943" lon="8.71493">
        <ele>1109.2</ele>
        <time>1970-01-01T01:00:00+01:00</time>
      </trkpt>
      <trkpt lat="46.14937" lon="8.71489">
        <ele>1109.9</ele>
        <time>1970-01-01T01:00:00+01:00</time>
      </trkpt>
      <trkpt lat="46.14929" lon="8.71484">
        <ele>1110.8</ele>
        <time>1970-01-01T01:00:00+01:00</time>
      </trkpt>
      <trkpt lat="46.14927" lon="8.71482">
        <ele>1111.1</ele>
        <time>1970-01-01T01:00:00+01:00</time>
      </trkpt>
      <trkpt lat="46.14924" lon="8.71479">
        <ele>1111.6</ele>
        <time>1970-01-01T01:00:00+01:00</time>
      </trkpt>
      <trkpt lat="46.14915" lon="8.71472">
        <ele>1112.8</ele>
        <time>1970-01-01T01:00:00+01:00</time>
      </trkpt>
      <trkpt lat="46.14908" lon="8.71465">
        <ele>1113.8</ele>
        <time>1970-01-01T01:00:00+01:00</time>
      </trkpt>
      <trkpt lat="46.14904" lon="8.71459">
        <ele>1114.4</ele>
        <time>1970-01-01T01:00:00+01:00</time>
      </trkpt>
      <trkpt lat="46.14899" lon="8.7145">
        <ele>1115.2</ele>
        <time>1970-01-01T01:00:00+01:00</time>
      </trkpt>
      <trkpt lat="46.14896" lon="8.71441">
        <ele>1115.8</ele>
        <time>1970-01-01T01:00:00+01:00</time>
      </trkpt>
      <trkpt lat="46.14895" lon="8.71435">
        <ele>1116.4</ele>
        <time>1970-01-01T01:00:00+01:00</time>
      </trkpt>
      <trkpt lat="46.14893" lon="8.71427">
        <ele>1117</ele>
        <time>1970-01-01T01:00:00+01:00</time>
      </trkpt>
      <trkpt lat="46.14891" lon="8.7142">
        <ele>1117.4</ele>
        <time>1970-01-01T01:00:00+01:00</time>
      </trkpt>
      <trkpt lat="46.14889" lon="8.71413">
        <ele>1118</ele>
        <time>1970-01-01T01:00:00+01:00</time>
      </trkpt>
      <trkpt lat="46.14885" lon="8.71403">
        <ele>1118.8</ele>
        <time>1970-01-01T01:00:00+01:00</time>
      </trkpt>
      <trkpt lat="46.14881" lon="8.71397">
        <ele>1119.4</ele>
        <time>1970-01-01T01:00:00+01:00</time>
      </trkpt>
      <trkpt lat="46.14879" lon="8.71393">
        <ele>1119.8</ele>
        <time>1970-01-01T01:00:00+01:00</time>
      </trkpt>
      <trkpt lat="46.14877" lon="8.71391">
        <ele>1120.1</ele>
        <time>1970-01-01T01:00:00+01:00</time>
      </trkpt>
      <trkpt lat="46.14872" lon="8.71388">
        <ele>1120.5</ele>
        <time>1970-01-01T01:00:00+01:00</time>
      </trkpt>
      <trkpt lat="46.14869" lon="8.71386">
        <ele>1120.8</ele>
        <time>1970-01-01T01:00:00+01:00</time>
      </trkpt>
      <trkpt lat="46.14861" lon="8.7138">
        <ele>1121.9</ele>
        <time>1970-01-01T01:00:00+01:00</time>
      </trkpt>
      <trkpt lat="46.14853" lon="8.71373">
        <ele>1123</ele>
        <time>1970-01-01T01:00:00+01:00</time>
      </trkpt>
      <trkpt lat="46.14849" lon="8.7137">
        <ele>1123.6</ele>
        <time>1970-01-01T01:00:00+01:00</time>
      </trkpt>
      <trkpt lat="46.14843" lon="8.71362">
        <ele>1124.6</ele>
        <time>1970-01-01T01:00:00+01:00</time>
      </trkpt>
      <trkpt lat="46.14838" lon="8.71353">
        <ele>1125.6</ele>
        <time>1970-01-01T01:00:00+01:00</time>
      </trkpt>
      <trkpt lat="46.14831" lon="8.71342">
        <ele>1126.6</ele>
        <time>1970-01-01T01:00:00+01:00</time>
      </trkpt>
      <trkpt lat="46.14825" lon="8.71334">
        <ele>1127.6</ele>
        <time>1970-01-01T01:00:00+01:00</time>
      </trkpt>
      <trkpt lat="46.14816" lon="8.71325">
        <ele>1128.9</ele>
        <time>1970-01-01T01:00:00+01:00</time>
      </trkpt>
      <trkpt lat="46.14811" lon="8.71319">
        <ele>1129.7</ele>
        <time>1970-01-01T01:00:00+01:00</time>
      </trkpt>
      <trkpt lat="46.14805" lon="8.71312">
        <ele>1130.6</ele>
        <time>1970-01-01T01:00:00+01:00</time>
      </trkpt>
      <trkpt lat="46.14799" lon="8.71303">
        <ele>1131.7</ele>
        <time>1970-01-01T01:00:00+01:00</time>
      </trkpt>
      <trkpt lat="46.14791" lon="8.71288">
        <ele>1133.1</ele>
        <time>1970-01-01T01:00:00+01:00</time>
      </trkpt>
      <trkpt lat="46.14782" lon="8.71273">
        <ele>1134.6</ele>
        <time>1970-01-01T01:00:00+01:00</time>
      </trkpt>
      <trkpt lat="46.14775" lon="8.7126">
        <ele>1136.1</ele>
        <time>1970-01-01T01:00:00+01:00</time>
      </trkpt>
      <trkpt lat="46.14772" lon="8.71252">
        <ele>1136.9</ele>
        <time>1970-01-01T01:00:00+01:00</time>
      </trkpt>
      <trkpt lat="46.14769" lon="8.71242">
        <ele>1137.7</ele>
        <time>1970-01-01T01:00:00+01:00</time>
      </trkpt>
      <trkpt lat="46.14766" lon="8.71233">
        <ele>1138.5</ele>
        <time>1970-01-01T01:00:00+01:00</time>
      </trkpt>
      <trkpt lat="46.14758" lon="8.71218">
        <ele>1140</ele>
        <time>1970-01-01T01:00:00+01:00</time>
      </trkpt>
      <trkpt lat="46.14749" lon="8.71203">
        <ele>1141.4</ele>
        <time>1970-01-01T01:00:00+01:00</time>
      </trkpt>
      <trkpt lat="46.14742" lon="8.71188">
        <ele>1142.6</ele>
        <time>1970-01-01T01:00:00+01:00</time>
      </trkpt>
      <trkpt lat="46.14735" lon="8.71173">
        <ele>1144.3</ele>
        <time>1970-01-01T01:00:00+01:00</time>
      </trkpt>
      <trkpt lat="46.14728" lon="8.71161">
        <ele>1145.6</ele>
        <time>1970-01-01T01:00:00+01:00</time>
      </trkpt>
      <trkpt lat="46.14722" lon="8.71148">
        <ele>1146.9</ele>
        <time>1970-01-01T01:00:00+01:00</time>
      </trkpt>
      <trkpt lat="46.14719" lon="8.71141">
        <ele>1147.5</ele>
        <time>1970-01-01T01:00:00+01:00</time>
      </trkpt>
      <trkpt lat="46.14715" lon="8.71135">
        <ele>1148.1</ele>
        <time>1970-01-01T01:00:00+01:00</time>
      </trkpt>
      <trkpt lat="46.14709" lon="8.71125">
        <ele>1149.4</ele>
        <time>1970-01-01T01:00:00+01:00</time>
      </trkpt>
      <trkpt lat="46.14699" lon="8.71109">
        <ele>1151.2</ele>
        <time>1970-01-01T01:00:00+01:00</time>
      </trkpt>
      <trkpt lat="46.14689" lon="8.71095">
        <ele>1152.3</ele>
        <time>1970-01-01T01:00:00+01:00</time>
      </trkpt>
      <trkpt lat="46.14679" lon="8.71082">
        <ele>1154</ele>
        <time>1970-01-01T01:00:00+01:00</time>
      </trkpt>
      <trkpt lat="46.14669" lon="8.71071">
        <ele>1154.8</ele>
        <time>1970-01-01T01:00:00+01:00</time>
      </trkpt>
      <trkpt lat="46.1466" lon="8.7106">
        <ele>1155.8</ele>
        <time>1970-01-01T01:00:00+01:00</time>
      </trkpt>
      <trkpt lat="46.14651" lon="8.71052">
        <ele>1157</ele>
        <time>1970-01-01T01:00:00+01:00</time>
      </trkpt>
      <trkpt lat="46.14644" lon="8.71045">
        <ele>1158.7</ele>
        <time>1970-01-01T01:00:00+01:00</time>
      </trkpt>
      <trkpt lat="46.14638" lon="8.71039">
        <ele>1159.2</ele>
        <time>1970-01-01T01:00:00+01:00</time>
      </trkpt>
      <trkpt lat="46.14635" lon="8.71035">
        <ele>1159.5</ele>
        <time>1970-01-01T01:00:00+01:00</time>
      </trkpt>
      <trkpt lat="46.14626" lon="8.71025">
        <ele>1160.8</ele>
        <time>1970-01-01T01:00:00+01:00</time>
      </trkpt>
      <trkpt lat="46.14617" lon="8.71011">
        <ele>1162.1</ele>
        <time>1970-01-01T01:00:00+01:00</time>
      </trkpt>
      <trkpt lat="46.1461" lon="8.70999">
        <ele>1163.3</ele>
        <time>1970-01-01T01:00:00+01:00</time>
      </trkpt>
      <trkpt lat="46.14603" lon="8.70989">
        <ele>1164.4</ele>
        <time>1970-01-01T01:00:00+01:00</time>
      </trkpt>
      <trkpt lat="46.14598" lon="8.7098">
        <ele>1165.3</ele>
        <time>1970-01-01T01:00:00+01:00</time>
      </trkpt>
      <trkpt lat="46.14599" lon="8.70976">
        <ele>1165.7</ele>
        <time>1970-01-01T01:00:00+01:00</time>
      </trkpt>
      <trkpt lat="46.14598" lon="8.70971">
        <ele>1166.9</ele>
        <time>1970-01-01T01:00:00+01:00</time>
      </trkpt>
      <trkpt lat="46.14598" lon="8.70968">
        <ele>1167.8</ele>
        <time>1970-01-01T01:00:00+01:00</time>
      </trkpt>
      <trkpt lat="46.14598" lon="8.70965">
        <ele>1168.3</ele>
        <time>1970-01-01T01:00:00+01:00</time>
      </trkpt>
      <trkpt lat="46.146" lon="8.70961">
        <ele>1169.6</ele>
        <time>1970-01-01T01:00:00+01:00</time>
      </trkpt>
      <trkpt lat="46.14602" lon="8.70959">
        <ele>1169.9</ele>
        <time>1970-01-01T01:00:00+01:00</time>
      </trkpt>
      <trkpt lat="46.14604" lon="8.70957">
        <ele>1170.3</ele>
        <time>1970-01-01T01:00:00+01:00</time>
      </trkpt>
      <trkpt lat="46.14603" lon="8.70953">
        <ele>1171.2</ele>
        <time>1970-01-01T01:00:00+01:00</time>
      </trkpt>
      <trkpt lat="46.14602" lon="8.70949">
        <ele>1172.4</ele>
        <time>1970-01-01T01:00:00+01:00</time>
      </trkpt>
      <trkpt lat="46.146" lon="8.70945">
        <ele>1173.5</ele>
        <time>1970-01-01T01:00:00+01:00</time>
      </trkpt>
      <trkpt lat="46.14598" lon="8.70942">
        <ele>1174.4</ele>
        <time>1970-01-01T01:00:00+01:00</time>
      </trkpt>
      <trkpt lat="46.14596" lon="8.70938">
        <ele>1175.8</ele>
        <time>1970-01-01T01:00:00+01:00</time>
      </trkpt>
      <trkpt lat="46.14594" lon="8.70936">
        <ele>1176.6</ele>
        <time>1970-01-01T01:00:00+01:00</time>
      </trkpt>
      <trkpt lat="46.14593" lon="8.70934">
        <ele>1177.3</ele>
        <time>1970-01-01T01:00:00+01:00</time>
      </trkpt>
      <trkpt lat="46.14589" lon="8.7093">
        <ele>1178.8</ele>
        <time>1970-01-01T01:00:00+01:00</time>
      </trkpt>
      <trkpt lat="46.14586" lon="8.70928">
        <ele>1179.8</ele>
        <time>1970-01-01T01:00:00+01:00</time>
      </trkpt>
      <trkpt lat="46.14586" lon="8.70927">
        <ele>1180.2</ele>
        <time>1970-01-01T01:00:00+01:00</time>
      </trkpt>
      <trkpt lat="46.14584" lon="8.70924">
        <ele>1180.6</ele>
        <time>1970-01-01T01:00:00+01:00</time>
      </trkpt>
      <trkpt lat="46.1458" lon="8.70923">
        <ele>1180.8</ele>
        <time>1970-01-01T01:00:00+01:00</time>
      </trkpt>
      <trkpt lat="46.14574" lon="8.70922">
        <ele>1181</ele>
        <time>1970-01-01T01:00:00+01:00</time>
      </trkpt>
      <trkpt lat="46.14572" lon="8.7092">
        <ele>1181.1</ele>
        <time>1970-01-01T01:00:00+01:00</time>
      </trkpt>
      <trkpt lat="46.14569" lon="8.70916">
        <ele>1181.5</ele>
        <time>1970-01-01T01:00:00+01:00</time>
      </trkpt>
      <trkpt lat="46.14567" lon="8.70914">
        <ele>1181.7</ele>
        <time>1970-01-01T01:00:00+01:00</time>
      </trkpt>
      <trkpt lat="46.14565" lon="8.70912">
        <ele>1182</ele>
        <time>1970-01-01T01:00:00+01:00</time>
      </trkpt>
      <trkpt lat="46.14563" lon="8.7091">
        <ele>1182.4</ele>
        <time>1970-01-01T01:00:00+01:00</time>
      </trkpt>
      <trkpt lat="46.1456" lon="8.70906">
        <ele>1183.2</ele>
        <time>1970-01-01T01:00:00+01:00</time>
      </trkpt>
      <trkpt lat="46.14557" lon="8.70903">
        <ele>1183.9</ele>
        <time>1970-01-01T01:00:00+01:00</time>
      </trkpt>
      <trkpt lat="46.14556" lon="8.70901">
        <ele>1184.6</ele>
        <time>1970-01-01T01:00:00+01:00</time>
      </trkpt>
      <trkpt lat="46.14552" lon="8.70897">
        <ele>1185.2</ele>
        <time>1970-01-01T01:00:00+01:00</time>
      </trkpt>
      <trkpt lat="46.14549" lon="8.70893">
        <ele>1186.2</ele>
        <time>1970-01-01T01:00:00+01:00</time>
      </trkpt>
      <trkpt lat="46.14546" lon="8.7089">
        <ele>1187</ele>
        <time>1970-01-01T01:00:00+01:00</time>
      </trkpt>
      <trkpt lat="46.14545" lon="8.70889">
        <ele>1187.5</ele>
        <time>1970-01-01T01:00:00+01:00</time>
      </trkpt>
      <trkpt lat="46.14541" lon="8.70885">
        <ele>1188.3</ele>
        <time>1970-01-01T01:00:00+01:00</time>
      </trkpt>
      <trkpt lat="46.1454" lon="8.70884">
        <ele>1188.7</ele>
        <time>1970-01-01T01:00:00+01:00</time>
      </trkpt>
      <trkpt lat="46.14538" lon="8.70883">
        <ele>1189</ele>
        <time>1970-01-01T01:00:00+01:00</time>
      </trkpt>
      <trkpt lat="46.14537" lon="8.70882">
        <ele>1189.5</ele>
        <time>1970-01-01T01:00:00+01:00</time>
      </trkpt>
      <trkpt lat="46.14532" lon="8.70879">
        <ele>1190.4</ele>
        <time>1970-01-01T01:00:00+01:00</time>
      </trkpt>
      <trkpt lat="46.1453" lon="8.70877">
        <ele>1191.4</ele>
        <time>1970-01-01T01:00:00+01:00</time>
      </trkpt>
      <trkpt lat="46.14526" lon="8.70874">
        <ele>1192.1</ele>
        <time>1970-01-01T01:00:00+01:00</time>
      </trkpt>
      <trkpt lat="46.14524" lon="8.70873">
        <ele>1192.5</ele>
        <time>1970-01-01T01:00:00+01:00</time>
      </trkpt>
      <trkpt lat="46.14521" lon="8.70871">
        <ele>1193.5</ele>
        <time>1970-01-01T01:00:00+01:00</time>
      </trkpt>
      <trkpt lat="46.14518" lon="8.70868">
        <ele>1194.2</ele>
        <time>1970-01-01T01:00:00+01:00</time>
      </trkpt>
      <trkpt lat="46.14515" lon="8.70865">
        <ele>1195</ele>
        <time>1970-01-01T01:00:00+01:00</time>
      </trkpt>
      <trkpt lat="46.14514" lon="8.70864">
        <ele>1195.3</ele>
        <time>1970-01-01T01:00:00+01:00</time>
      </trkpt>
      <trkpt lat="46.1451" lon="8.70861">
        <ele>1196</ele>
        <time>1970-01-01T01:00:00+01:00</time>
      </trkpt>
      <trkpt lat="46.14507" lon="8.70859">
        <ele>1196.9</ele>
        <time>1970-01-01T01:00:00+01:00</time>
      </trkpt>
      <trkpt lat="46.14505" lon="8.70857">
        <ele>1197.7</ele>
        <time>1970-01-01T01:00:00+01:00</time>
      </trkpt>
      <trkpt lat="46.14502" lon="8.70853">
        <ele>1198.4</ele>
        <time>1970-01-01T01:00:00+01:00</time>
      </trkpt>
      <trkpt lat="46.14497" lon="8.70849">
        <ele>1199.7</ele>
        <time>1970-01-01T01:00:00+01:00</time>
      </trkpt>
      <trkpt lat="46.14495" lon="8.70846">
        <ele>1200.2</ele>
        <time>1970-01-01T01:00:00+01:00</time>
      </trkpt>
      <trkpt lat="46.14492" lon="8.70844">
        <ele>1200.8</ele>
        <time>1970-01-01T01:00:00+01:00</time>
      </trkpt>
      <trkpt lat="46.14491" lon="8.70841">
        <ele>1201.6</ele>
        <time>1970-01-01T01:00:00+01:00</time>
      </trkpt>
      <trkpt lat="46.1449" lon="8.70837">
        <ele>1202.3</ele>
        <time>1970-01-01T01:00:00+01:00</time>
      </trkpt>
      <trkpt lat="46.14488" lon="8.70833">
        <ele>1202.8</ele>
        <time>1970-01-01T01:00:00+01:00</time>
      </trkpt>
      <trkpt lat="46.14485" lon="8.70827">
        <ele>1203.8</ele>
        <time>1970-01-01T01:00:00+01:00</time>
      </trkpt>
      <trkpt lat="46.14483" lon="8.70823">
        <ele>1204.5</ele>
        <time>1970-01-01T01:00:00+01:00</time>
      </trkpt>
      <trkpt lat="46.14483" lon="8.7082">
        <ele>1204.8</ele>
        <time>1970-01-01T01:00:00+01:00</time>
      </trkpt>
      <trkpt lat="46.14483" lon="8.70814">
        <ele>1205.7</ele>
        <time>1970-01-01T01:00:00+01:00</time>
      </trkpt>
      <trkpt lat="46.14484" lon="8.70809">
        <ele>1206.2</ele>
        <time>1970-01-01T01:00:00+01:00</time>
      </trkpt>
      <trkpt lat="46.14484" lon="8.70805">
        <ele>1206.7</ele>
        <time>1970-01-01T01:00:00+01:00</time>
      </trkpt>
      <trkpt lat="46.14484" lon="8.70799">
        <ele>1207.4</ele>
        <time>1970-01-01T01:00:00+01:00</time>
      </trkpt>
      <trkpt lat="46.14485" lon="8.70795">
        <ele>1208.2</ele>
        <time>1970-01-01T01:00:00+01:00</time>
      </trkpt>
      <trkpt lat="46.14486" lon="8.7079">
        <ele>1208.8</ele>
        <time>1970-01-01T01:00:00+01:00</time>
      </trkpt>
      <trkpt lat="46.14488" lon="8.70783">
        <ele>1210.1</ele>
        <time>1970-01-01T01:00:00+01:00</time>
      </trkpt>
      <trkpt lat="46.14489" lon="8.70781">
        <ele>1210.7</ele>
        <time>1970-01-01T01:00:00+01:00</time>
      </trkpt>
      <trkpt lat="46.14487" lon="8.70776">
        <ele>1211.2</ele>
        <time>1970-01-01T01:00:00+01:00</time>
      </trkpt>
      <trkpt lat="46.14486" lon="8.7077">
        <ele>1211.9</ele>
        <time>1970-01-01T01:00:00+01:00</time>
      </trkpt>
      <trkpt lat="46.14485" lon="8.70767">
        <ele>1212.3</ele>
        <time>1970-01-01T01:00:00+01:00</time>
      </trkpt>
      <trkpt lat="46.14485" lon="8.70763">
        <ele>1213.2</ele>
        <time>1970-01-01T01:00:00+01:00</time>
      </trkpt>
      <trkpt lat="46.14485" lon="8.7076">
        <ele>1213.4</ele>
        <time>1970-01-01T01:00:00+01:00</time>
      </trkpt>
      <trkpt lat="46.14485" lon="8.70757">
        <ele>1213.8</ele>
        <time>1970-01-01T01:00:00+01:00</time>
      </trkpt>
      <trkpt lat="46.14486" lon="8.7075">
        <ele>1214.3</ele>
        <time>1970-01-01T01:00:00+01:00</time>
      </trkpt>
      <trkpt lat="46.14487" lon="8.70742">
        <ele>1216.3</ele>
        <time>1970-01-01T01:00:00+01:00</time>
      </trkpt>
      <trkpt lat="46.14489" lon="8.70736">
        <ele>1217.1</ele>
        <time>1970-01-01T01:00:00+01:00</time>
      </trkpt>
      <trkpt lat="46.14491" lon="8.7073">
        <ele>1218.3</ele>
        <time>1970-01-01T01:00:00+01:00</time>
      </trkpt>
      <trkpt lat="46.14494" lon="8.70726">
        <ele>1218.8</ele>
        <time>1970-01-01T01:00:00+01:00</time>
      </trkpt>
      <trkpt lat="46.14496" lon="8.70721">
        <ele>1219.7</ele>
        <time>1970-01-01T01:00:00+01:00</time>
      </trkpt>
      <trkpt lat="46.14497" lon="8.70718">
        <ele>1220.7</ele>
        <time>1970-01-01T01:00:00+01:00</time>
      </trkpt>
      <trkpt lat="46.145" lon="8.70711">
        <ele>1221.7</ele>
        <time>1970-01-01T01:00:00+01:00</time>
      </trkpt>
      <trkpt lat="46.14504" lon="8.70704">
        <ele>1222.9</ele>
        <time>1970-01-01T01:00:00+01:00</time>
      </trkpt>
      <trkpt lat="46.14508" lon="8.70695">
        <ele>1224.5</ele>
        <time>1970-01-01T01:00:00+01:00</time>
      </trkpt>
      <trkpt lat="46.14511" lon="8.70689">
        <ele>1225.4</ele>
        <time>1970-01-01T01:00:00+01:00</time>
      </trkpt>
      <trkpt lat="46.14514" lon="8.70683">
        <ele>1226.8</ele>
        <time>1970-01-01T01:00:00+01:00</time>
      </trkpt>
      <trkpt lat="46.14518" lon="8.70678">
        <ele>1227.5</ele>
        <time>1970-01-01T01:00:00+01:00</time>
      </trkpt>
      <trkpt lat="46.1452" lon="8.70673">
        <ele>1228.7</ele>
        <time>1970-01-01T01:00:00+01:00</time>
      </trkpt>
      <trkpt lat="46.14524" lon="8.70669">
        <ele>1229.4</ele>
        <time>1970-01-01T01:00:00+01:00</time>
      </trkpt>
      <trkpt lat="46.14528" lon="8.70664">
        <ele>1230.6</ele>
        <time>1970-01-01T01:00:00+01:00</time>
      </trkpt>
      <trkpt lat="46.14531" lon="8.70661">
        <ele>1231.3</ele>
        <time>1970-01-01T01:00:00+01:00</time>
      </trkpt>
      <trkpt lat="46.14533" lon="8.70659">
        <ele>1231.8</ele>
        <time>1970-01-01T01:00:00+01:00</time>
      </trkpt>
      <trkpt lat="46.14534" lon="8.70658">
        <ele>1232.3</ele>
        <time>1970-01-01T01:00:00+01:00</time>
      </trkpt>
      <trkpt lat="46.14538" lon="8.70654">
        <ele>1233</ele>
        <time>1970-01-01T01:00:00+01:00</time>
      </trkpt>
      <trkpt lat="46.14542" lon="8.7065">
        <ele>1234.2</ele>
        <time>1970-01-01T01:00:00+01:00</time>
      </trkpt>
      <trkpt lat="46.14543" lon="8.70648">
        <ele>1234.8</ele>
        <time>1970-01-01T01:00:00+01:00</time>
      </trkpt>
      <trkpt lat="46.14544" lon="8.70647">
        <ele>1234.9</ele>
        <time>1970-01-01T01:00:00+01:00</time>
      </trkpt>
      <trkpt lat="46.14546" lon="8.70644">
        <ele>1235.1</ele>
        <time>1970-01-01T01:00:00+01:00</time>
      </trkpt>
      <trkpt lat="46.14548" lon="8.70639">
        <ele>1235.8</ele>
        <time>1970-01-01T01:00:00+01:00</time>
      </trkpt>
      <trkpt lat="46.14549" lon="8.70637">
        <ele>1236.3</ele>
        <time>1970-01-01T01:00:00+01:00</time>
      </trkpt>
      <trkpt lat="46.1455" lon="8.70635">
        <ele>1236.8</ele>
        <time>1970-01-01T01:00:00+01:00</time>
      </trkpt>
      <trkpt lat="46.14553" lon="8.7063">
        <ele>1237.4</ele>
        <time>1970-01-01T01:00:00+01:00</time>
      </trkpt>
      <trkpt lat="46.14556" lon="8.70626">
        <ele>1238.7</ele>
        <time>1970-01-01T01:00:00+01:00</time>
      </trkpt>
      <trkpt lat="46.14559" lon="8.70621">
        <ele>1239.3</ele>
        <time>1970-01-01T01:00:00+01:00</time>
      </trkpt>
      <trkpt lat="46.14562" lon="8.70618">
        <ele>1240.2</ele>
        <time>1970-01-01T01:00:00+01:00</time>
      </trkpt>
      <trkpt lat="46.14565" lon="8.70612">
        <ele>1241.1</ele>
        <time>1970-01-01T01:00:00+01:00</time>
      </trkpt>
      <trkpt lat="46.14569" lon="8.70605">
        <ele>1242.1</ele>
        <time>1970-01-01T01:00:00+01:00</time>
      </trkpt>
      <trkpt lat="46.14572" lon="8.706">
        <ele>1243</ele>
        <time>1970-01-01T01:00:00+01:00</time>
      </trkpt>
      <trkpt lat="46.14574" lon="8.70598">
        <ele>1243.6</ele>
        <time>1970-01-01T01:00:00+01:00</time>
      </trkpt>
      <trkpt lat="46.14579" lon="8.70592">
        <ele>1245.2</ele>
        <time>1970-01-01T01:00:00+01:00</time>
      </trkpt>
      <trkpt lat="46.14584" lon="8.70588">
        <ele>1246.9</ele>
        <time>1970-01-01T01:00:00+01:00</time>
      </trkpt>
      <trkpt lat="46.14588" lon="8.70583">
        <ele>1247.9</ele>
        <time>1970-01-01T01:00:00+01:00</time>
      </trkpt>
      <trkpt lat="46.14593" lon="8.70577">
        <ele>1249.6</ele>
        <time>1970-01-01T01:00:00+01:00</time>
      </trkpt>
      <trkpt lat="46.14597" lon="8.70573">
        <ele>1250.6</ele>
        <time>1970-01-01T01:00:00+01:00</time>
      </trkpt>
      <trkpt lat="46.14601" lon="8.70569">
        <ele>1251.3</ele>
        <time>1970-01-01T01:00:00+01:00</time>
      </trkpt>
      <trkpt lat="46.14609" lon="8.70564">
        <ele>1252.8</ele>
        <time>1970-01-01T01:00:00+01:00</time>
      </trkpt>
      <trkpt lat="46.14612" lon="8.70562">
        <ele>1253.9</ele>
        <time>1970-01-01T01:00:00+01:00</time>
      </trkpt>
      <trkpt lat="46.14616" lon="8.70558">
        <ele>1254.7</ele>
        <time>1970-01-01T01:00:00+01:00</time>
      </trkpt>
      <trkpt lat="46.14621" lon="8.70551">
        <ele>1255.9</ele>
        <time>1970-01-01T01:00:00+01:00</time>
      </trkpt>
      <trkpt lat="46.14624" lon="8.70546">
        <ele>1257</ele>
        <time>1970-01-01T01:00:00+01:00</time>
      </trkpt>
      <trkpt lat="46.14628" lon="8.70541">
        <ele>1258.3</ele>
        <time>1970-01-01T01:00:00+01:00</time>
      </trkpt>
      <trkpt lat="46.14632" lon="8.70536">
        <ele>1258.9</ele>
        <time>1970-01-01T01:00:00+01:00</time>
      </trkpt>
      <trkpt lat="46.14639" lon="8.7053">
        <ele>1260.7</ele>
        <time>1970-01-01T01:00:00+01:00</time>
      </trkpt>
      <trkpt lat="46.14643" lon="8.70527">
        <ele>1262</ele>
        <time>1970-01-01T01:00:00+01:00</time>
      </trkpt>
      <trkpt lat="46.14648" lon="8.70525">
        <ele>1262.7</ele>
        <time>1970-01-01T01:00:00+01:00</time>
      </trkpt>
      <trkpt lat="46.1465" lon="8.70524">
        <ele>1263.6</ele>
        <time>1970-01-01T01:00:00+01:00</time>
      </trkpt>
      <trkpt lat="46.14656" lon="8.70523">
        <ele>1264.5</ele>
        <time>1970-01-01T01:00:00+01:00</time>
      </trkpt>
      <trkpt lat="46.14659" lon="8.70523">
        <ele>1265.3</ele>
        <time>1970-01-01T01:00:00+01:00</time>
      </trkpt>
      <trkpt lat="46.14666" lon="8.70521">
        <ele>1266.5</ele>
        <time>1970-01-01T01:00:00+01:00</time>
      </trkpt>
      <trkpt lat="46.14669" lon="8.70522">
        <ele>1267.5</ele>
        <time>1970-01-01T01:00:00+01:00</time>
      </trkpt>
      <trkpt lat="46.14674" lon="8.70522">
        <ele>1268.5</ele>
        <time>1970-01-01T01:00:00+01:00</time>
      </trkpt>
      <trkpt lat="46.14679" lon="8.70523">
        <ele>1269.5</ele>
        <time>1970-01-01T01:00:00+01:00</time>
      </trkpt>
      <trkpt lat="46.14685" lon="8.70523">
        <ele>1270.9</ele>
        <time>1970-01-01T01:00:00+01:00</time>
      </trkpt>
      <trkpt lat="46.14689" lon="8.70523">
        <ele>1271.5</ele>
        <time>1970-01-01T01:00:00+01:00</time>
      </trkpt>
      <trkpt lat="46.14696" lon="8.70525">
        <ele>1272.7</ele>
        <time>1970-01-01T01:00:00+01:00</time>
      </trkpt>
      <trkpt lat="46.14698" lon="8.70526">
        <ele>1273</ele>
        <time>1970-01-01T01:00:00+01:00</time>
      </trkpt>
      <trkpt lat="46.1471" lon="8.70535">
        <ele>1274.8</ele>
        <time>1970-01-01T01:00:00+01:00</time>
      </trkpt>
      <trkpt lat="46.1472" lon="8.70541">
        <ele>1277.4</ele>
        <time>1970-01-01T01:00:00+01:00</time>
      </trkpt>
      <trkpt lat="46.1473" lon="8.70542">
        <ele>1279.1</ele>
        <time>1970-01-01T01:00:00+01:00</time>
      </trkpt>
      <trkpt lat="46.14739" lon="8.70543">
        <ele>1280.6</ele>
        <time>1970-01-01T01:00:00+01:00</time>
      </trkpt>
      <trkpt lat="46.1475" lon="8.70546">
        <ele>1282.1</ele>
        <time>1970-01-01T01:00:00+01:00</time>
      </trkpt>
      <trkpt lat="46.14759" lon="8.7055">
        <ele>1283.4</ele>
        <time>1970-01-01T01:00:00+01:00</time>
      </trkpt>
      <trkpt lat="46.14764" lon="8.70552">
        <ele>1284.5</ele>
        <time>1970-01-01T01:00:00+01:00</time>
      </trkpt>
      <trkpt lat="46.1477" lon="8.70553">
        <ele>1285.5</ele>
        <time>1970-01-01T01:00:00+01:00</time>
      </trkpt>
      <trkpt lat="46.14776" lon="8.70554">
        <ele>1287</ele>
        <time>1970-01-01T01:00:00+01:00</time>
      </trkpt>
      <trkpt lat="46.1478" lon="8.70554">
        <ele>1288.2</ele>
        <time>1970-01-01T01:00:00+01:00</time>
      </trkpt>
      <trkpt lat="46.14785" lon="8.70555">
        <ele>1289</ele>
        <time>1970-01-01T01:00:00+01:00</time>
      </trkpt>
      <trkpt lat="46.14787" lon="8.70553">
        <ele>1289.2</ele>
        <time>1970-01-01T01:00:00+01:00</time>
      </trkpt>
      <trkpt lat="46.14789" lon="8.70551">
        <ele>1289.5</ele>
        <time>1970-01-01T01:00:00+01:00</time>
      </trkpt>
      <trkpt lat="46.14791" lon="8.70548">
        <ele>1289.6</ele>
        <time>1970-01-01T01:00:00+01:00</time>
      </trkpt>
      <trkpt lat="46.14792" lon="8.70544">
        <ele>1289.9</ele>
        <time>1970-01-01T01:00:00+01:00</time>
      </trkpt>
      <trkpt lat="46.14792" lon="8.70537">
        <ele>1290.2</ele>
        <time>1970-01-01T01:00:00+01:00</time>
      </trkpt>
      <trkpt lat="46.14792" lon="8.70526">
        <ele>1290.9</ele>
        <time>1970-01-01T01:00:00+01:00</time>
      </trkpt>
      <trkpt lat="46.14792" lon="8.70513">
        <ele>1291.4</ele>
        <time>1970-01-01T01:00:00+01:00</time>
      </trkpt>
      <trkpt lat="46.14792" lon="8.70501">
        <ele>1291.9</ele>
        <time>1970-01-01T01:00:00+01:00</time>
      </trkpt>
      <trkpt lat="46.14791" lon="8.70488">
        <ele>1292.4</ele>
        <time>1970-01-01T01:00:00+01:00</time>
      </trkpt>
      <trkpt lat="46.14791" lon="8.7048">
        <ele>1292.7</ele>
        <time>1970-01-01T01:00:00+01:00</time>
      </trkpt>
      <trkpt lat="46.1479" lon="8.70474">
        <ele>1293</ele>
        <time>1970-01-01T01:00:00+01:00</time>
      </trkpt>
      <trkpt lat="46.14788" lon="8.70467">
        <ele>1293.3</ele>
        <time>1970-01-01T01:00:00+01:00</time>
      </trkpt>
      <trkpt lat="46.14786" lon="8.7046">
        <ele>1293.6</ele>
        <time>1970-01-01T01:00:00+01:00</time>
      </trkpt>
      <trkpt lat="46.14783" lon="8.70453">
        <ele>1294.3</ele>
        <time>1970-01-01T01:00:00+01:00</time>
      </trkpt>
      <trkpt lat="46.1478" lon="8.70447">
        <ele>1294.8</ele>
        <time>1970-01-01T01:00:00+01:00</time>
      </trkpt>
      <trkpt lat="46.14777" lon="8.70439">
        <ele>1295.4</ele>
        <time>1970-01-01T01:00:00+01:00</time>
      </trkpt>
      <trkpt lat="46.14774" lon="8.70432">
        <ele>1295.7</ele>
        <time>1970-01-01T01:00:00+01:00</time>
      </trkpt>
      <trkpt lat="46.14772" lon="8.70426">
        <ele>1296</ele>
        <time>1970-01-01T01:00:00+01:00</time>
      </trkpt>
      <trkpt lat="46.14769" lon="8.70421">
        <ele>1296.2</ele>
        <time>1970-01-01T01:00:00+01:00</time>
      </trkpt>
      <trkpt lat="46.14756" lon="8.70405">
        <ele>1297.5</ele>
        <time>1970-01-01T01:00:00+01:00</time>
      </trkpt>
      <trkpt lat="46.14747" lon="8.70394">
        <ele>1298.7</ele>
        <time>1970-01-01T01:00:00+01:00</time>
      </trkpt>
      <trkpt lat="46.14742" lon="8.70389">
        <ele>1299.4</ele>
        <time>1970-01-01T01:00:00+01:00</time>
      </trkpt>
      <trkpt lat="46.14733" lon="8.70382">
        <ele>1300.3</ele>
        <time>1970-01-01T01:00:00+01:00</time>
      </trkpt>
      <trkpt lat="46.14729" lon="8.70379">
        <ele>1300.7</ele>
        <time>1970-01-01T01:00:00+01:00</time>
      </trkpt>
      <trkpt lat="46.14724" lon="8.70372">
        <ele>1300.7</ele>
        <time>1970-01-01T01:00:00+01:00</time>
      </trkpt>
      <trkpt lat="46.14718" lon="8.70364">
        <ele>1300.3</ele>
        <time>1970-01-01T01:00:00+01:00</time>
      </trkpt>
      <trkpt lat="46.14718" lon="8.70357">
        <ele>1300.7</ele>
        <time>1970-01-01T01:00:00+01:00</time>
      </trkpt>
      <trkpt lat="46.14716" lon="8.70353">
        <ele>1301.6</ele>
        <time>1970-01-01T01:00:00+01:00</time>
      </trkpt>
      <trkpt lat="46.14715" lon="8.70349">
        <ele>1302.6</ele>
        <time>1970-01-01T01:00:00+01:00</time>
      </trkpt>
      <trkpt lat="46.14716" lon="8.70346">
        <ele>1303.1</ele>
        <time>1970-01-01T01:00:00+01:00</time>
      </trkpt>
      <trkpt lat="46.14716" lon="8.70341">
        <ele>1304.1</ele>
        <time>1970-01-01T01:00:00+01:00</time>
      </trkpt>
      <trkpt lat="46.14715" lon="8.70337">
        <ele>1304.2</ele>
        <time>1970-01-01T01:00:00+01:00</time>
      </trkpt>
      <trkpt lat="46.14714" lon="8.70333">
        <ele>1304.4</ele>
        <time>1970-01-01T01:00:00+01:00</time>
      </trkpt>
      <trkpt lat="46.14713" lon="8.70326">
        <ele>1305</ele>
        <time>1970-01-01T01:00:00+01:00</time>
      </trkpt>
      <trkpt lat="46.14712" lon="8.70323">
        <ele>1305.4</ele>
        <time>1970-01-01T01:00:00+01:00</time>
      </trkpt>
      <trkpt lat="46.14711" lon="8.7032">
        <ele>1305.5</ele>
        <time>1970-01-01T01:00:00+01:00</time>
      </trkpt>
      <trkpt lat="46.14711" lon="8.70315">
        <ele>1305.6</ele>
        <time>1970-01-01T01:00:00+01:00</time>
      </trkpt>
      <trkpt lat="46.14712" lon="8.70309">
        <ele>1305.8</ele>
        <time>1970-01-01T01:00:00+01:00</time>
      </trkpt>
      <trkpt lat="46.14711" lon="8.70306">
        <ele>1305.9</ele>
        <time>1970-01-01T01:00:00+01:00</time>
      </trkpt>
      <trkpt lat="46.14711" lon="8.703">
        <ele>1306</ele>
        <time>1970-01-01T01:00:00+01:00</time>
      </trkpt>
      <trkpt lat="46.14712" lon="8.70291">
        <ele>1306.5</ele>
        <time>1970-01-01T01:00:00+01:00</time>
      </trkpt>
      <trkpt lat="46.1471" lon="8.70288">
        <ele>1306.5</ele>
        <time>1970-01-01T01:00:00+01:00</time>
      </trkpt>
      <trkpt lat="46.14708" lon="8.70282">
        <ele>1306.3</ele>
        <time>1970-01-01T01:00:00+01:00</time>
      </trkpt>
      <trkpt lat="46.14707" lon="8.70276">
        <ele>1306.5</ele>
        <time>1970-01-01T01:00:00+01:00</time>
      </trkpt>
      <trkpt lat="46.14708" lon="8.70273">
        <ele>1306.7</ele>
        <time>1970-01-01T01:00:00+01:00</time>
      </trkpt>
      <trkpt lat="46.14709" lon="8.70269">
        <ele>1306.9</ele>
        <time>1970-01-01T01:00:00+01:00</time>
      </trkpt>
      <trkpt lat="46.1471" lon="8.70266">
        <ele>1307.2</ele>
        <time>1970-01-01T01:00:00+01:00</time>
      </trkpt>
      <trkpt lat="46.1471" lon="8.70261">
        <ele>1307.7</ele>
        <time>1970-01-01T01:00:00+01:00</time>
      </trkpt>
      <trkpt lat="46.14709" lon="8.70254">
        <ele>1308.9</ele>
        <time>1970-01-01T01:00:00+01:00</time>
      </trkpt>
      <trkpt lat="46.14706" lon="8.70247">
        <ele>1309.6</ele>
        <time>1970-01-01T01:00:00+01:00</time>
      </trkpt>
      <trkpt lat="46.14703" lon="8.70243">
        <ele>1309.8</ele>
        <time>1970-01-01T01:00:00+01:00</time>
      </trkpt>
      <trkpt lat="46.147" lon="8.7024">
        <ele>1310</ele>
        <time>1970-01-01T01:00:00+01:00</time>
      </trkpt>
      <trkpt lat="46.14697" lon="8.70238">
        <ele>1309.9</ele>
        <time>1970-01-01T01:00:00+01:00</time>
      </trkpt>
      <trkpt lat="46.14695" lon="8.70236">
        <ele>1310</ele>
        <time>1970-01-01T01:00:00+01:00</time>
      </trkpt>
      <trkpt lat="46.14693" lon="8.70231">
        <ele>1310.4</ele>
        <time>1970-01-01T01:00:00+01:00</time>
      </trkpt>
      <trkpt lat="46.14691" lon="8.70228">
        <ele>1310.4</ele>
        <time>1970-01-01T01:00:00+01:00</time>
      </trkpt>
      <trkpt lat="46.14689" lon="8.7022">
        <ele>1310.8</ele>
        <time>1970-01-01T01:00:00+01:00</time>
      </trkpt>
      <trkpt lat="46.14687" lon="8.70217">
        <ele>1310.8</ele>
        <time>1970-01-01T01:00:00+01:00</time>
      </trkpt>
      <trkpt lat="46.14686" lon="8.70215">
        <ele>1311</ele>
        <time>1970-01-01T01:00:00+01:00</time>
      </trkpt>
      <trkpt lat="46.14685" lon="8.70206">
        <ele>1311.1</ele>
        <time>1970-01-01T01:00:00+01:00</time>
      </trkpt>
      <trkpt lat="46.14683" lon="8.7019">
        <ele>1312.7</ele>
        <time>1970-01-01T01:00:00+01:00</time>
      </trkpt>
      <trkpt lat="46.1468" lon="8.7018">
        <ele>1313.8</ele>
        <time>1970-01-01T01:00:00+01:00</time>
      </trkpt>
      <trkpt lat="46.14678" lon="8.7017">
        <ele>1314.6</ele>
        <time>1970-01-01T01:00:00+01:00</time>
      </trkpt>
      <trkpt lat="46.14675" lon="8.70158">
        <ele>1314.6</ele>
        <time>1970-01-01T01:00:00+01:00</time>
      </trkpt>
      <trkpt lat="46.14671" lon="8.70152">
        <ele>1314.2</ele>
        <time>1970-01-01T01:00:00+01:00</time>
      </trkpt>
      <trkpt lat="46.14667" lon="8.70148">
        <ele>1313.6</ele>
        <time>1970-01-01T01:00:00+01:00</time>
      </trkpt>
      <trkpt lat="46.14664" lon="8.70142">
        <ele>1313.5</ele>
        <time>1970-01-01T01:00:00+01:00</time>
      </trkpt>
      <trkpt lat="46.14661" lon="8.70131">
        <ele>1313.5</ele>
        <time>1970-01-01T01:00:00+01:00</time>
      </trkpt>
      <trkpt lat="46.14659" lon="8.70118">
        <ele>1313.7</ele>
        <time>1970-01-01T01:00:00+01:00</time>
      </trkpt>
      <trkpt lat="46.14657" lon="8.70112">
        <ele>1313.9</ele>
        <time>1970-01-01T01:00:00+01:00</time>
      </trkpt>
      <trkpt lat="46.14655" lon="8.70108">
        <ele>1313.6</ele>
        <time>1970-01-01T01:00:00+01:00</time>
      </trkpt>
      <trkpt lat="46.14653" lon="8.701">
        <ele>1313.1</ele>
        <time>1970-01-01T01:00:00+01:00</time>
      </trkpt>
      <trkpt lat="46.14654" lon="8.70087">
        <ele>1313.7</ele>
        <time>1970-01-01T01:00:00+01:00</time>
      </trkpt>
      <trkpt lat="46.14655" lon="8.70075">
        <ele>1315.1</ele>
        <time>1970-01-01T01:00:00+01:00</time>
      </trkpt>
      <trkpt lat="46.14654" lon="8.70069">
        <ele>1315.1</ele>
        <time>1970-01-01T01:00:00+01:00</time>
      </trkpt>
      <trkpt lat="46.14653" lon="8.70057">
        <ele>1315.4</ele>
        <time>1970-01-01T01:00:00+01:00</time>
      </trkpt>
      <trkpt lat="46.14653" lon="8.70055">
        <ele>1315.4</ele>
        <time>1970-01-01T01:00:00+01:00</time>
      </trkpt>
      <trkpt lat="46.14657" lon="8.7004">
        <ele>1317.4</ele>
        <time>1970-01-01T01:00:00+01:00</time>
      </trkpt>
      <trkpt lat="46.14655" lon="8.70032">
        <ele>1318.5</ele>
        <time>1970-01-01T01:00:00+01:00</time>
      </trkpt>
      <trkpt lat="46.14653" lon="8.70019">
        <ele>1321</ele>
        <time>1970-01-01T01:00:00+01:00</time>
      </trkpt>
      <trkpt lat="46.14651" lon="8.7001">
        <ele>1321.6</ele>
        <time>1970-01-01T01:00:00+01:00</time>
      </trkpt>
      <trkpt lat="46.1465" lon="8.70004">
        <ele>1323.6</ele>
        <time>1970-01-01T01:00:00+01:00</time>
      </trkpt>
      <trkpt lat="46.14649" lon="8.69998">
        <ele>1324</ele>
        <time>1970-01-01T01:00:00+01:00</time>
      </trkpt>
      <trkpt lat="46.14645" lon="8.69987">
        <ele>1325.4</ele>
        <time>1970-01-01T01:00:00+01:00</time>
      </trkpt>
      <trkpt lat="46.14644" lon="8.69981">
        <ele>1326.9</ele>
        <time>1970-01-01T01:00:00+01:00</time>
      </trkpt>
      <trkpt lat="46.14643" lon="8.69975">
        <ele>1328.1</ele>
        <time>1970-01-01T01:00:00+01:00</time>
      </trkpt>
      <trkpt lat="46.14639" lon="8.69969">
        <ele>1329</ele>
        <time>1970-01-01T01:00:00+01:00</time>
      </trkpt>
      <trkpt lat="46.14635" lon="8.69962">
        <ele>1330.5</ele>
        <time>1970-01-01T01:00:00+01:00</time>
      </trkpt>
      <trkpt lat="46.14631" lon="8.69958">
        <ele>1331.4</ele>
        <time>1970-01-01T01:00:00+01:00</time>
      </trkpt>
      <trkpt lat="46.14629" lon="8.69951">
        <ele>1332.6</ele>
        <time>1970-01-01T01:00:00+01:00</time>
      </trkpt>
      <trkpt lat="46.14627" lon="8.69948">
        <ele>1333.2</ele>
        <time>1970-01-01T01:00:00+01:00</time>
      </trkpt>
      <trkpt lat="46.14621" lon="8.69944">
        <ele>1334.3</ele>
        <time>1970-01-01T01:00:00+01:00</time>
      </trkpt>
      <trkpt lat="46.1462" lon="8.69942">
        <ele>1334.7</ele>
        <time>1970-01-01T01:00:00+01:00</time>
      </trkpt>
      <trkpt lat="46.14617" lon="8.69935">
        <ele>1335.5</ele>
        <time>1970-01-01T01:00:00+01:00</time>
      </trkpt>
      <trkpt lat="46.14615" lon="8.69929">
        <ele>1336.6</ele>
        <time>1970-01-01T01:00:00+01:00</time>
      </trkpt>
      <trkpt lat="46.1461" lon="8.69921">
        <ele>1337.8</ele>
        <time>1970-01-01T01:00:00+01:00</time>
      </trkpt>
      <trkpt lat="46.14609" lon="8.69917">
        <ele>1338.2</ele>
        <time>1970-01-01T01:00:00+01:00</time>
      </trkpt>
      <trkpt lat="46.14608" lon="8.69911">
        <ele>1339.2</ele>
        <time>1970-01-01T01:00:00+01:00</time>
      </trkpt>
      <trkpt lat="46.14603" lon="8.69904">
        <ele>1340.5</ele>
        <time>1970-01-01T01:00:00+01:00</time>
      </trkpt>
      <trkpt lat="46.14603" lon="8.69899">
        <ele>1341</ele>
        <time>1970-01-01T01:00:00+01:00</time>
      </trkpt>
      <trkpt lat="46.146" lon="8.69892">
        <ele>1342.4</ele>
        <time>1970-01-01T01:00:00+01:00</time>
      </trkpt>
      <trkpt lat="46.14594" lon="8.69883">
        <ele>1344.7</ele>
        <time>1970-01-01T01:00:00+01:00</time>
      </trkpt>
      <trkpt lat="46.1459" lon="8.69879">
        <ele>1345</ele>
        <time>1970-01-01T01:00:00+01:00</time>
      </trkpt>
      <trkpt lat="46.14586" lon="8.69876">
        <ele>1344.8</ele>
        <time>1970-01-01T01:00:00+01:00</time>
      </trkpt>
      <trkpt lat="46.14583" lon="8.69873">
        <ele>1345</ele>
        <time>1970-01-01T01:00:00+01:00</time>
      </trkpt>
      <trkpt lat="46.1458" lon="8.6987">
        <ele>1345.1</ele>
        <time>1970-01-01T01:00:00+01:00</time>
      </trkpt>
      <trkpt lat="46.1458" lon="8.69868">
        <ele>1345.5</ele>
        <time>1970-01-01T01:00:00+01:00</time>
      </trkpt>
      <trkpt lat="46.14579" lon="8.69867">
        <ele>1345.7</ele>
        <time>1970-01-01T01:00:00+01:00</time>
      </trkpt>
      <trkpt lat="46.14578" lon="8.69864">
        <ele>1346.7</ele>
        <time>1970-01-01T01:00:00+01:00</time>
      </trkpt>
      <trkpt lat="46.14577" lon="8.69863">
        <ele>1346.9</ele>
        <time>1970-01-01T01:00:00+01:00</time>
      </trkpt>
      <trkpt lat="46.14574" lon="8.69858">
        <ele>1347.4</ele>
        <time>1970-01-01T01:00:00+01:00</time>
      </trkpt>
      <trkpt lat="46.14573" lon="8.69854">
        <ele>1347.9</ele>
        <time>1970-01-01T01:00:00+01:00</time>
      </trkpt>
      <trkpt lat="46.1457" lon="8.69849">
        <ele>1348.8</ele>
        <time>1970-01-01T01:00:00+01:00</time>
      </trkpt>
      <trkpt lat="46.14568" lon="8.69847">
        <ele>1349.1</ele>
        <time>1970-01-01T01:00:00+01:00</time>
      </trkpt>
      <trkpt lat="46.14565" lon="8.69842">
        <ele>1349.7</ele>
        <time>1970-01-01T01:00:00+01:00</time>
      </trkpt>
      <trkpt lat="46.14562" lon="8.69836">
        <ele>1350.5</ele>
        <time>1970-01-01T01:00:00+01:00</time>
      </trkpt>
      <trkpt lat="46.14559" lon="8.6983">
        <ele>1351.3</ele>
        <time>1970-01-01T01:00:00+01:00</time>
      </trkpt>
      <trkpt lat="46.14558" lon="8.69825">
        <ele>1352.6</ele>
        <time>1970-01-01T01:00:00+01:00</time>
      </trkpt>
      <trkpt lat="46.14556" lon="8.69822">
        <ele>1353.1</ele>
        <time>1970-01-01T01:00:00+01:00</time>
      </trkpt>
      <trkpt lat="46.14555" lon="8.69816">
        <ele>1354.3</ele>
        <time>1970-01-01T01:00:00+01:00</time>
      </trkpt>
      <trkpt lat="46.14552" lon="8.69811">
        <ele>1355</ele>
        <time>1970-01-01T01:00:00+01:00</time>
      </trkpt>
      <trkpt lat="46.1455" lon="8.69804">
        <ele>1355.7</ele>
        <time>1970-01-01T01:00:00+01:00</time>
      </trkpt>
      <trkpt lat="46.14549" lon="8.69799">
        <ele>1356.3</ele>
        <time>1970-01-01T01:00:00+01:00</time>
      </trkpt>
      <trkpt lat="46.14546" lon="8.69792">
        <ele>1356.8</ele>
        <time>1970-01-01T01:00:00+01:00</time>
      </trkpt>
      <trkpt lat="46.14543" lon="8.69785">
        <ele>1357.7</ele>
        <time>1970-01-01T01:00:00+01:00</time>
      </trkpt>
      <trkpt lat="46.14542" lon="8.6978">
        <ele>1359</ele>
        <time>1970-01-01T01:00:00+01:00</time>
      </trkpt>
      <trkpt lat="46.14541" lon="8.69777">
        <ele>1359.7</ele>
        <time>1970-01-01T01:00:00+01:00</time>
      </trkpt>
      <trkpt lat="46.1454" lon="8.69774">
        <ele>1360.3</ele>
        <time>1970-01-01T01:00:00+01:00</time>
      </trkpt>
      <trkpt lat="46.14539" lon="8.69772">
        <ele>1360.8</ele>
        <time>1970-01-01T01:00:00+01:00</time>
      </trkpt>
      <trkpt lat="46.14538" lon="8.69767">
        <ele>1362.3</ele>
        <time>1970-01-01T01:00:00+01:00</time>
      </trkpt>
      <trkpt lat="46.14536" lon="8.69763">
        <ele>1362.5</ele>
        <time>1970-01-01T01:00:00+01:00</time>
      </trkpt>
      <trkpt lat="46.14534" lon="8.69759">
        <ele>1362.6</ele>
        <time>1970-01-01T01:00:00+01:00</time>
      </trkpt>
      <trkpt lat="46.14533" lon="8.69754">
        <ele>1363.1</ele>
        <time>1970-01-01T01:00:00+01:00</time>
      </trkpt>
      <trkpt lat="46.14533" lon="8.69749">
        <ele>1364</ele>
        <time>1970-01-01T01:00:00+01:00</time>
      </trkpt>
      <trkpt lat="46.14534" lon="8.69744">
        <ele>1365.5</ele>
        <time>1970-01-01T01:00:00+01:00</time>
      </trkpt>
      <trkpt lat="46.14533" lon="8.69738">
        <ele>1366.4</ele>
        <time>1970-01-01T01:00:00+01:00</time>
      </trkpt>
      <trkpt lat="46.14531" lon="8.6973">
        <ele>1367.9</ele>
        <time>1970-01-01T01:00:00+01:00</time>
      </trkpt>
      <trkpt lat="46.14526" lon="8.69724">
        <ele>1368.6</ele>
        <time>1970-01-01T01:00:00+01:00</time>
      </trkpt>
      <trkpt lat="46.14521" lon="8.69719">
        <ele>1368.6</ele>
        <time>1970-01-01T01:00:00+01:00</time>
      </trkpt>
      <trkpt lat="46.14519" lon="8.69715">
        <ele>1368.8</ele>
        <time>1970-01-01T01:00:00+01:00</time>
      </trkpt>
      <trkpt lat="46.14516" lon="8.6971">
        <ele>1369.9</ele>
        <time>1970-01-01T01:00:00+01:00</time>
      </trkpt>
      <trkpt lat="46.14514" lon="8.69703">
        <ele>1370.2</ele>
        <time>1970-01-01T01:00:00+01:00</time>
      </trkpt>
      <trkpt lat="46.14511" lon="8.69697">
        <ele>1370.4</ele>
        <time>1970-01-01T01:00:00+01:00</time>
      </trkpt>
      <trkpt lat="46.14506" lon="8.69688">
        <ele>1370.6</ele>
        <time>1970-01-01T01:00:00+01:00</time>
      </trkpt>
      <trkpt lat="46.14503" lon="8.69682">
        <ele>1370.9</ele>
        <time>1970-01-01T01:00:00+01:00</time>
      </trkpt>
      <trkpt lat="46.14499" lon="8.69677">
        <ele>1371.3</ele>
        <time>1970-01-01T01:00:00+01:00</time>
      </trkpt>
      <trkpt lat="46.14497" lon="8.69673">
        <ele>1371.9</ele>
        <time>1970-01-01T01:00:00+01:00</time>
      </trkpt>
      <trkpt lat="46.14497" lon="8.69668">
        <ele>1372.6</ele>
        <time>1970-01-01T01:00:00+01:00</time>
      </trkpt>
      <trkpt lat="46.14497" lon="8.69665">
        <ele>1373.2</ele>
        <time>1970-01-01T01:00:00+01:00</time>
      </trkpt>
      <trkpt lat="46.14496" lon="8.69661">
        <ele>1374.1</ele>
        <time>1970-01-01T01:00:00+01:00</time>
      </trkpt>
      <trkpt lat="46.14493" lon="8.69656">
        <ele>1374.9</ele>
        <time>1970-01-01T01:00:00+01:00</time>
      </trkpt>
      <trkpt lat="46.1449" lon="8.69651">
        <ele>1375.6</ele>
        <time>1970-01-01T01:00:00+01:00</time>
      </trkpt>
      <trkpt lat="46.14487" lon="8.69646">
        <ele>1376.6</ele>
        <time>1970-01-01T01:00:00+01:00</time>
      </trkpt>
      <trkpt lat="46.14483" lon="8.6964">
        <ele>1377.7</ele>
        <time>1970-01-01T01:00:00+01:00</time>
      </trkpt>
      <trkpt lat="46.14481" lon="8.69634">
        <ele>1378.7</ele>
        <time>1970-01-01T01:00:00+01:00</time>
      </trkpt>
      <trkpt lat="46.14478" lon="8.6963">
        <ele>1379.2</ele>
        <time>1970-01-01T01:00:00+01:00</time>
      </trkpt>
      <trkpt lat="46.14475" lon="8.69625">
        <ele>1379.6</ele>
        <time>1970-01-01T01:00:00+01:00</time>
      </trkpt>
      <trkpt lat="46.14472" lon="8.69619">
        <ele>1380</ele>
        <time>1970-01-01T01:00:00+01:00</time>
      </trkpt>
      <trkpt lat="46.14469" lon="8.69611">
        <ele>1380.4</ele>
        <time>1970-01-01T01:00:00+01:00</time>
      </trkpt>
      <trkpt lat="46.14468" lon="8.69609">
        <ele>1380.4</ele>
        <time>1970-01-01T01:00:00+01:00</time>
      </trkpt>
      <trkpt lat="46.14466" lon="8.69603">
        <ele>1380.4</ele>
        <time>1970-01-01T01:00:00+01:00</time>
      </trkpt>
      <trkpt lat="46.14463" lon="8.69599">
        <ele>1380.4</ele>
        <time>1970-01-01T01:00:00+01:00</time>
      </trkpt>
      <trkpt lat="46.14462" lon="8.69596">
        <ele>1380.5</ele>
        <time>1970-01-01T01:00:00+01:00</time>
      </trkpt>
      <trkpt lat="46.14461" lon="8.69595">
        <ele>1380.6</ele>
        <time>1970-01-01T01:00:00+01:00</time>
      </trkpt>
      <trkpt lat="46.1446" lon="8.69586">
        <ele>1381.6</ele>
        <time>1970-01-01T01:00:00+01:00</time>
      </trkpt>
      <trkpt lat="46.14456" lon="8.69578">
        <ele>1383.3</ele>
        <time>1970-01-01T01:00:00+01:00</time>
      </trkpt>
      <trkpt lat="46.14456" lon="8.69575">
        <ele>1383.6</ele>
        <time>1970-01-01T01:00:00+01:00</time>
      </trkpt>
      <trkpt lat="46.14456" lon="8.6957">
        <ele>1384.1</ele>
        <time>1970-01-01T01:00:00+01:00</time>
      </trkpt>
      <trkpt lat="46.14457" lon="8.69566">
        <ele>1384.5</ele>
        <time>1970-01-01T01:00:00+01:00</time>
      </trkpt>
      <trkpt lat="46.14456" lon="8.69564">
        <ele>1385</ele>
        <time>1970-01-01T01:00:00+01:00</time>
      </trkpt>
      <trkpt lat="46.14454" lon="8.69564">
        <ele>1385.3</ele>
        <time>1970-01-01T01:00:00+01:00</time>
      </trkpt>
      <trkpt lat="46.14452" lon="8.69563">
        <ele>1386.4</ele>
        <time>1970-01-01T01:00:00+01:00</time>
      </trkpt>
      <trkpt lat="46.14449" lon="8.69561">
        <ele>1387.5</ele>
        <time>1970-01-01T01:00:00+01:00</time>
      </trkpt>
      <trkpt lat="46.14446" lon="8.69559">
        <ele>1388.7</ele>
        <time>1970-01-01T01:00:00+01:00</time>
      </trkpt>
      <trkpt lat="46.14444" lon="8.69557">
        <ele>1389.2</ele>
        <time>1970-01-01T01:00:00+01:00</time>
      </trkpt>
      <trkpt lat="46.14442" lon="8.69554">
        <ele>1390.3</ele>
        <time>1970-01-01T01:00:00+01:00</time>
      </trkpt>
      <trkpt lat="46.1444" lon="8.69549">
        <ele>1391.7</ele>
        <time>1970-01-01T01:00:00+01:00</time>
      </trkpt>
      <trkpt lat="46.14436" lon="8.69543">
        <ele>1393.4</ele>
        <time>1970-01-01T01:00:00+01:00</time>
      </trkpt>
      <trkpt lat="46.14433" lon="8.69538">
        <ele>1394.6</ele>
        <time>1970-01-01T01:00:00+01:00</time>
      </trkpt>
      <trkpt lat="46.14431" lon="8.69534">
        <ele>1395.5</ele>
        <time>1970-01-01T01:00:00+01:00</time>
      </trkpt>
      <trkpt lat="46.14428" lon="8.69529">
        <ele>1396.6</ele>
        <time>1970-01-01T01:00:00+01:00</time>
      </trkpt>
      <trkpt lat="46.14425" lon="8.69523">
        <ele>1397.4</ele>
        <time>1970-01-01T01:00:00+01:00</time>
      </trkpt>
      <trkpt lat="46.14422" lon="8.69515">
        <ele>1398</ele>
        <time>1970-01-01T01:00:00+01:00</time>
      </trkpt>
      <trkpt lat="46.14422" lon="8.69509">
        <ele>1398.5</ele>
        <time>1970-01-01T01:00:00+01:00</time>
      </trkpt>
      <trkpt lat="46.1442" lon="8.69505">
        <ele>1398.9</ele>
        <time>1970-01-01T01:00:00+01:00</time>
      </trkpt>
      <trkpt lat="46.14415" lon="8.69493">
        <ele>1400.5</ele>
        <time>1970-01-01T01:00:00+01:00</time>
      </trkpt>
      <trkpt lat="46.14412" lon="8.69486">
        <ele>1401.7</ele>
        <time>1970-01-01T01:00:00+01:00</time>
      </trkpt>
      <trkpt lat="46.14412" lon="8.69478">
        <ele>1403.2</ele>
        <time>1970-01-01T01:00:00+01:00</time>
      </trkpt>
      <trkpt lat="46.14412" lon="8.69466">
        <ele>1404.6</ele>
        <time>1970-01-01T01:00:00+01:00</time>
      </trkpt>
      <trkpt lat="46.14413" lon="8.69454">
        <ele>1405.7</ele>
        <time>1970-01-01T01:00:00+01:00</time>
      </trkpt>
      <trkpt lat="46.14413" lon="8.6945">
        <ele>1406.2</ele>
        <time>1970-01-01T01:00:00+01:00</time>
      </trkpt>
      <trkpt lat="46.14412" lon="8.69451">
        <ele>1406.2</ele>
        <time>1970-01-01T01:00:00+01:00</time>
      </trkpt>
    </trkseg>
  </trk>
</gpx>